Skip Page Navigation
NASA JPL Caltech
NASA Logo - Jet Propulsion Laboratory + View the NASA Portal
+ Center for Near-Earth Object Studies
JPL Home Earth Solar System Stars & Galaxies Technology
JPL Solar System Dynamics
BODIES ORBITS EPHEMERIDES TOOLS PHYSICAL DATA DISCOVERY FAQ SITE MAP
JPL Small-Body Database Browser
Search: [ help ]  
324459 (2006 UZ9)
Classification: Main-belt Asteroid          SPK-ID: 2324459
Ephemeris | Orbit Diagram | Orbital Elements | Mission Design | Physical Parameters | Discovery Circumstances ]

[ hide orbit diagram ]
Orbit Diagram
[ switch to new HTML5 viewer ]

Note: This Java-based orbit viewer will eventually be retired.

Note: Make sure you have Java enabled on your browser to see the applet. This applet is provided as a 3D orbit visualization tool. The applet was implemented using two-body methods, and hence should not be used for determining accurate long-term trajectories (over several years or decades) or planetary encounter circumstances. For accurate long-term ephemerides, please instead use our Horizons system.

Note: If the applet is not working, here are some notes that might help.
Orbit Viewer

Additional Notes: the orbits shown in the applet are color coded. The planets are white lines, and the asteroid/comet is a blue line. The bright white line indicates the portion of the orbit that is above the ecliptic plane, and the darker portion is below the ecliptic plane. Likewise for the asteroid/comet orbit, the light blue indicates the portion above the ecliptic plane, and the dark blue the portion below the ecliptic plane.

Orbit Viewer applet originally written and kindly provided by Osamu Ajiki (AstroArts), and further modified by Ron Baalke (JPL).


Orbital Elements at Epoch 2459000.5 (2020-May-31.0) TDB
Reference: JPL 17 (heliocentric ecliptic J2000)
 Element Value Uncertainty (1-sigma)   Units 
e .1499888271260351 2.3099e-07  
a 2.543956277852085 2.3844e-08 au
q 2.162391259477137 6.0215e-07 au
i 2.556513761606042 4.6236e-06 deg
node 137.1640512752473 0.0001722 deg
peri 278.9850199712102 0.00019058 deg
M 120.0078973216992 8.1423e-05 deg
tp 2458506.450781088879
(2019-Jan-22.95078109)
0.0003297 TDB
period 1482.050121511829
4.06
2.0836e-05
5.705e-08
d
yr
n .2429067646057519 3.415e-09 deg/d
Q 2.925521296227034 2.742e-08 au
  Orbit Determination Parameters
   # obs. used (total)      272  
   data-arc span      6383 days (17.48 yr)  
   first obs. used      2002-11-24  
   last obs. used      2020-05-16  
   planetary ephem.      DE431  
   SB-pert. ephem.      SB431-N16  
   condition code      0  
   norm. resid. RMS      .58375  
   source      ORB  
   producer      Otto Matic  
   solution date      2020-Nov-11 18:03:56  

Additional Information
 Earth MOID = 1.17597 au 
 Jupiter MOID = 2.40977 au 
 T_jup = 3.427 
[ show covariance matrix ]

Ephemeris | Orbit Diagram | Orbital Elements | Mission Design | Physical Parameters | Discovery Circumstances ]

Physical Parameter Table
Parameter Symbol Value Units Sigma Reference Notes
absolute magnitude H 17.3   n/a MPO460326  

324459 (2006 UZ9)          Discovered 2006-Oct-16 by Spacewatch at Kitt Peak
Reference: 20120406/Numbers.arcLast Updated: 2012-04-09
Ephemeris | Orbit Diagram | Orbital Elements | Mission Design | Physical Parameters | Discovery Circumstances ]
ABOUT SSD CREDITS/AWARDS PRIVACY/COPYRIGHT GLOSSARY LINKS
FirstGov 2020-Dec-04 08:45 UT
(server date/time)  
NASA Home Page
Site Manager:   Ryan S. Park
Webmaster  Alan B. Chamberlin